Date String (YYYY-MM-DD hh:mm:ss) UTC,Instrument flags,Ambient pressure (hPa),Sample flow (lpm),Bypass flow (lpm),Sample temperature (°C),Ambient temperature (°C),ASC tube jacket temperature (°C),LED temperature (°C),Box temperature (°C),Sample RH (%),Span deviation,Mass concentration (μg/m³),Mass concentration (μg/m³),Mass concentration (μg/m³)
DateTimeUTC,F1_M11,P_M11,Q1_M11,Q2_M11,T1_M11,T2_M11,T3_M11,T4_M11,T5_M11,U1_M11,ZSPAN_M11,X2_M11,X0_M11,X1_M11
2021-11-22 01:00:00,,0832.3,5.01,0.00,27.0,26.1,00.0,36.1,28.7,06.0,0000.0,0001.11,0001.87,0000.84
2021-11-22 01:01:00,,0832.2,4.99,0.00,27.0,26.1,00.0,36.1,28.7,06.0,0000.0,0001.11,0001.88,0000.84
2021-11-22 01:02:00,,0832.3,5.00,0.00,27.0,26.1,00.0,36.1,28.8,06.0,0000.0,0001.10,0001.86,0000.84
2021-11-22 01:03:00,,0832.3,5.01,0.00,27.0,26.1,00.0,36.1,28.8,06.0,0000.0,0001.12,0001.89,0000.84
2021-11-22 01:04:00,,0832.3,4.99,0.00,27.0,26.1,00.0,36.1,28.8,06.0,0000.0,0001.14,0001.94,0000.84
2021-11-22 01:05:00,,0832.3,5.00,0.00,27.0,26.1,00.0,36.1,28.8,06.0,0000.0,0001.13,0001.90,0000.84
2021-11-22 01:06:00,,0832.2,4.99,0.00,27.0,26.1,00.0,36.1,28.8,06.0,0000.0,0001.12,0001.86,0000.84
2021-11-22 01:07:00,,0832.2,5.01,0.00,27.0,26.1,00.0,36.1,28.8,05.9,0000.0,0001.12,0001.85,0000.83
2021-11-22 01:08:00,,0832.3,4.99,0.00,27.0,26.1,00.0,36.1,28.8,05.8,0000.0,0001.09,0001.79,0000.83
2021-11-22 01:09:00,,0832.2,5.01,0.00,27.0,26.1,00.0,36.1,28.7,05.8,0000.0,0001.08,0001.78,0000.84
2021-11-22 01:10:00,,0832.3,5.01,0.00,27.0,26.1,00.0,36.1,28.7,05.8,0000.0,0001.08,0001.83,0000.83
2021-11-22 01:11:00,,0832.3,4.99,0.00,27.0,26.1,00.0,36.1,28.7,05.8,0000.0,0001.08,0001.85,0000.82
2021-11-22 01:12:00,,0832.3,5.01,0.00,27.0,26.1,00.0,36.1,28.7,05.8,0000.0,0001.09,0001.90,0000.82
2021-11-22 01:13:00,,0832.2,5.00,0.00,27.0,26.0,00.0,36.1,28.7,05.7,0000.0,0001.07,0001.86,0000.80
2021-11-22 01:14:00,,0832.2,5.01,0.00,27.0,26.0,00.0,36.1,28.7,05.7,0000.0,0001.04,0001.80,0000.80
2021-11-22 01:15:00,,0832.2,4.99,0.00,27.0,26.0,00.0,36.0,28.6,05.8,0000.0,0001.02,0001.77,0000.79
2021-11-22 01:16:00,,0832.2,5.01,0.00,27.0,26.0,00.0,36.0,28.7,05.9,0000.0,0001.02,0001.78,0000.78
2021-11-22 01:17:00,,0832.2,4.99,0.00,26.9,26.0,00.0,36.0,28.7,05.8,0000.0,0000.99,0001.74,0000.76
2021-11-22 01:18:00,,0832.3,5.00,0.00,26.9,26.0,00.0,36.0,28.6,05.9,0000.0,0000.97,0001.66,0000.76
2021-11-22 01:19:00,,0832.2,4.99,0.00,26.9,26.0,00.0,36.0,28.6,05.8,0000.0,0000.96,0001.61,0000.74
2021-11-22 01:20:00,,0832.2,5.02,0.00,26.9,26.0,00.0,36.0,28.6,05.8,0000.0,0000.93,0001.46,0000.73
2021-11-22 01:21:00,,0832.2,5.00,0.00,26.9,25.9,00.0,36.0,28.6,05.7,0000.0,0000.90,0001.38,0000.72
2021-11-22 01:22:00,,0832.1,5.00,0.00,26.9,25.9,00.0,36.0,28.6,05.7,0000.0,0000.87,0001.29,0000.71
2021-11-22 01:23:00,,0832.1,5.01,0.00,26.9,25.9,00.0,36.0,28.6,05.6,0000.0,0000.85,0001.24,0000.71
2021-11-22 01:24:00,,0832.1,5.00,0.00,26.9,25.9,00.0,36.0,28.6,05.7,0000.0,0000.85,0001.59,0000.70
2021-11-22 01:25:00,,0832.1,4.99,0.00,26.9,25.9,00.0,36.0,28.6,05.7,0000.0,0000.85,0002.08,0000.70
2021-11-22 01:26:00,,0832.1,4.99,0.00,26.9,25.9,00.0,36.0,28.6,05.7,0000.0,0000.84,0002.06,0000.69
2021-11-22 01:27:00,,0832.2,5.01,0.00,26.9,25.9,00.0,36.0,28.6,05.7,0000.0,0000.84,0002.06,0000.69
2021-11-22 01:28:00,,0832.2,5.00,0.00,26.9,25.9,00.0,35.9,28.6,05.7,0000.0,0000.86,0002.14,0000.69
2021-11-22 01:29:00,,0832.2,4.99,0.00,26.9,25.9,00.0,35.9,28.6,05.7,0000.0,0000.87,0002.16,0000.69
2021-11-22 01:30:00,,0832.2,5.01,0.00,26.9,25.9,00.0,35.9,28.6,05.6,0000.0,0000.86,0002.15,0000.69
2021-11-22 01:31:00,,0832.3,4.99,0.00,26.9,25.9,00.0,35.9,28.6,05.5,0000.0,0000.86,0002.15,0000.68
2021-11-22 01:32:00,,0832.3,4.99,0.00,26.9,25.9,00.0,35.9,28.6,05.4,0000.0,0000.85,0002.16,0000.67
2021-11-22 01:33:00,,0832.2,5.00,0.00,26.9,25.8,00.0,35.9,28.6,05.5,0000.0,0000.86,0002.17,0000.67
2021-11-22 01:34:00,,0832.2,5.00,0.00,26.9,25.9,00.0,35.9,28.6,05.5,0000.0,0000.85,0002.17,0000.67
2021-11-22 01:35:00,,0832.2,4.99,0.00,26.8,25.8,00.0,35.9,28.6,05.4,0000.0,0000.85,0002.01,0000.66
2021-11-22 01:36:00,,0832.3,5.01,0.00,26.8,25.8,00.0,35.9,28.6,05.5,0000.0,0000.84,0001.32,0000.65
2021-11-22 01:37:00,,0832.2,5.00,0.00,26.8,25.9,00.0,35.9,28.6,05.4,0000.0,0000.85,0001.34,0000.64
2021-11-22 01:38:00,,0832.2,4.99,0.00,26.8,25.9,00.0,35.9,28.5,05.3,0000.0,0000.89,0001.56,0000.65
2021-11-22 01:39:00,,0832.3,5.01,0.00,26.8,25.8,00.0,35.9,28.5,05.4,0000.0,0000.88,0001.61,0000.65
2021-11-22 01:40:00,,0832.3,5.00,0.00,26.8,25.8,00.0,35.9,28.5,05.4,0000.0,0000.88,0001.72,0000.64
2021-11-22 01:41:00,,0832.1,4.99,0.00,26.8,25.9,00.0,35.9,28.6,05.3,0000.0,0000.88,0001.71,0000.64
2021-11-22 01:42:00,,0832.1,4.99,0.00,26.8,25.9,00.0,35.9,28.5,05.1,0000.0,0000.90,0001.72,0000.65
2021-11-22 01:43:00,,0832.1,5.01,0.00,26.8,25.9,00.0,35.9,28.5,05.2,0000.0,0000.91,0001.72,0000.65
2021-11-22 01:44:00,,0832.2,5.01,0.00,26.8,25.9,00.0,35.9,28.5,05.2,0000.0,0000.90,0001.72,0000.65
2021-11-22 01:45:00,,0832.2,5.01,0.00,26.8,25.9,00.0,35.9,28.5,05.5,0000.0,0000.89,0001.67,0000.65
2021-11-22 01:46:00,,0832.2,4.98,0.00,26.8,25.9,00.0,35.9,28.5,06.4,0000.0,0000.94,0001.78,0000.69
2021-11-22 01:47:00,,0832.2,5.01,0.00,26.8,25.9,00.0,35.8,28.5,06.8,0000.0,0001.08,0002.23,0000.77
2021-11-22 01:48:00,,0832.2,5.00,0.00,26.8,25.9,00.0,35.9,28.6,06.8,0000.0,0001.19,0003.50,0000.84
2021-11-22 01:49:00,,0832.2,5.00,0.00,26.8,25.9,00.0,35.8,28.6,07.3,0000.0,0001.36,0006.71,0000.94
2021-11-22 01:50:00,,0832.2,5.00,0.00,26.8,25.9,00.0,35.8,28.5,07.3,0000.0,0001.53,0007.18,0001.03
2021-11-22 01:51:00,,0832.3,5.00,0.00,26.8,25.9,00.0,35.8,28.6,07.3,0000.0,0001.73,0008.92,0001.12
2021-11-22 01:52:00,,0832.3,4.99,0.00,26.8,25.9,00.0,35.8,28.6,07.2,0000.0,0001.88,0009.42,0001.22
2021-11-22 01:53:00,,0832.2,5.00,0.00,26.8,25.9,00.0,35.8,28.6,07.3,0000.0,0002.00,0009.58,0001.32
2021-11-22 01:54:00,,0832.3,5.00,0.00,26.8,25.9,00.0,35.8,28.6,07.7,0000.0,0002.19,0009.75,0001.45
2021-11-22 01:55:00,,0832.4,5.01,0.00,26.8,25.9,00.0,35.8,28.6,07.9,0000.0,0002.44,0010.02,0001.60
2021-11-22 01:56:00,,0832.3,4.99,0.00,26.8,25.9,00.0,35.8,28.6,07.5,0000.0,0002.66,0010.31,0001.72
2021-11-22 01:57:00,,0832.3,5.00,0.00,26.8,25.9,00.0,35.8,28.5,07.4,0000.0,0002.77,0010.46,0001.79
2021-11-22 01:58:00,,0832.3,5.00,0.00,26.8,25.9,00.0,35.8,28.5,07.3,0000.0,0002.84,0010.86,0001.81
2021-11-22 01:59:00,,0832.3,5.00,0.00,26.8,25.9,00.0,35.8,28.6,07.7,0000.0,0002.97,0011.22,0001.85
